sat.trackr.live / text

‹ back to catalog

STARLINK-32477

NORAD 62038 · 2024-216G

PAYLOAD ACTIVE UNKNOWN

§ Identity

Operator
Country
US
Launch date
2024-11-21
Launch site
AFETR
Launch vehicle
Mass (kg)
RCS (m²)

Purposes: comms

External: N2YO · Heavens-Above · Gunter

§ Orbital elements

Epoch: 2026-05-25T01:47:21.113952Z

Period
92.08 min
Inclination
42.9858°
Eccentricity
0.0022772
Mean motion
15.63793693 rev/d
Perigee alt
361.3 km
Apogee alt
392.1 km
Semi-major
6,754.8 km
B*
1.2396e-3
RAAN
163.5181°
Arg perigee
92.4693°
Mean anomaly
267.8779°
Rev number
8,464

§ Raw data

STARLINK-324771 62038U 24216G   26145.07454993  .00122319  00000+0  12396-2 0  99932 62038  42.9858 163.5181 0022772  92.4693 267.8779 15.63793693 84645

JSON: /api/v1/satellites/62038 · /tle

For live sub-satellite position, see the globe view (requires WebGL).

§ Visibility from observer

Set your observer location to see the next 7 days of passes ≥ 10°. The values pass through the URL so the page stays shareable.

No JS? Fill the form by hand. The geolocation button needs JavaScript.